CJF4090 ZBAA-ZSWX

Flight info

Callsign CJF4090
Flight time 1h 18m
Altitude 29100
Route ELKU2G/18L ELKUR W40 YQG W142 DALIM A593 VMB
Aircraft A319/M-SDE3FGHIRWY/LB1

Departure

Time 2026-05-04 06:40
Airport Beijing Capital International Airport (ZBAA)

Arrival

Time 2026-05-04 07:58
Airport Sunan Shuofang International Airport (ZSWX)
Time Latitude Longitude Altitude Speed Heading
2026-05-04 06:17 40.05386 116.59490 129 ft 0 kts 263°
2026-05-04 06:22 40.05387 116.59498 137 ft 2 kts 264°
2026-05-04 06:22 40.05388 116.59523 122 ft 3 kts 271°
2026-05-04 06:25 40.05350 116.59614 124 ft 0 kts 353°
2026-05-04 06:27 40.05354 116.59613 124 ft 2 kts 353°
2026-05-04 06:28 40.05381 116.59609 119 ft 5 kts 354°
2026-05-04 06:28 40.05423 116.59604 120 ft 8 kts 354°
2026-05-04 06:28 40.05486 116.59594 121 ft 9 kts 353°
2026-05-04 06:28 40.05555 116.59583 120 ft 11 kts 353°
2026-05-04 06:29 40.05634 116.59571 122 ft 13 kts 353°
2026-05-04 06:29 40.05723 116.59557 122 ft 13 kts 353°
2026-05-04 06:29 40.05813 116.59543 124 ft 13 kts 353°
2026-05-04 06:29 40.05910 116.59527 124 ft 14 kts 353°
2026-05-04 06:30 40.06007 116.59512 124 ft 13 kts 353°
2026-05-04 06:30 40.06094 116.59486 122 ft 13 kts 325°
2026-05-04 06:30 40.06154 116.59397 123 ft 13 kts 312°
2026-05-04 06:30 40.06239 116.59366 123 ft 14 kts 354°
2026-05-04 06:31 40.06335 116.59352 121 ft 13 kts 351°
2026-05-04 06:31 40.06416 116.59299 124 ft 13 kts 352°
2026-05-04 06:31 40.06505 116.59285 121 ft 13 kts 353°
2026-05-04 06:31 40.06595 116.59271 122 ft 13 kts 353°
2026-05-04 06:32 40.06689 116.59256 119 ft 14 kts 353°
2026-05-04 06:33 40.07319 116.59169 124 ft 13 kts 353°
2026-05-04 06:34 40.07406 116.59155 122 ft 11 kts 353°
2026-05-04 06:34 40.07456 116.59210 122 ft 10 kts 84°
2026-05-04 06:34 40.07473 116.59298 123 ft 10 kts 67°
2026-05-04 06:34 40.07486 116.59391 124 ft 10 kts 67°
2026-05-04 06:35 40.07555 116.59410 122 ft 11 kts 352°
2026-05-04 06:36 40.08169 116.59314 122 ft 14 kts 352°
2026-05-04 06:37 40.08266 116.59299 122 ft 14 kts 353°
2026-05-04 06:37 40.08362 116.59284 120 ft 13 kts 353°
2026-05-04 06:37 40.08453 116.59269 122 ft 13 kts 353°
2026-05-04 06:37 40.08540 116.59256 122 ft 11 kts 356°
2026-05-04 06:38 40.08579 116.59302 122 ft 9 kts 80°
2026-05-04 06:38 40.08588 116.59398 124 ft 14 kts 83°
2026-05-04 06:40 40.03603 116.60324 1852 ft 166 kts 176°
2026-05-04 06:40 40.02382 116.60507 2166 ft 189 kts 177°
2026-05-04 06:40 40.00991 116.60712 2597 ft 213 kts 176°
2026-05-04 06:40 39.99432 116.60946 3025 ft 238 kts 175°
2026-05-04 06:41 39.97722 116.61214 3585 ft 255 kts 175°
2026-05-04 06:41 39.95964 116.61490 4468 ft 260 kts 175°
2026-05-04 06:41 39.94145 116.61775 5275 ft 267 kts 177°
2026-05-04 06:41 39.92273 116.62067 6075 ft 275 kts 176°
2026-05-04 06:42 39.90345 116.62370 6821 ft 283 kts 176°
2026-05-04 06:42 39.88375 116.62677 7593 ft 288 kts 175°
2026-05-04 06:42 39.86364 116.62991 8363 ft 294 kts 175°
2026-05-04 06:44 39.69872 116.63828 10974 ft 409 kts 180°
2026-05-04 06:44 39.66996 116.63890 11413 ft 417 kts 180°
2026-05-04 06:44 39.64078 116.63968 11985 ft 421 kts 180°
2026-05-04 06:45 39.61130 116.64052 12537 ft 426 kts 180°
2026-05-04 06:45 39.58150 116.64140 13149 ft 430 kts 180°
2026-05-04 06:45 39.55147 116.64226 13731 ft 433 kts 180°
2026-05-04 06:45 39.52170 116.64304 14263 ft 435 kts 180°
2026-05-04 06:46 39.49125 116.64378 14756 ft 439 kts 180°
2026-05-04 06:46 39.46059 116.64451 15244 ft 443 kts 180°
2026-05-04 06:46 39.42965 116.64524 15706 ft 446 kts 180°
2026-05-04 06:46 39.39858 116.64598 16180 ft 448 kts 180°
2026-05-04 06:48 39.17645 116.65164 18630 ft 462 kts 179°
2026-05-04 06:48 39.14428 116.65243 18633 ft 463 kts 180°
2026-05-04 06:49 39.11211 116.65319 18632 ft 462 kts 180°
2026-05-04 06:50 38.88723 116.65891 18643 ft 463 kts 180°
2026-05-04 06:51 38.85498 116.65964 18643 ft 463 kts 180°
2026-05-04 06:51 38.82266 116.66040 18793 ft 465 kts 180°
2026-05-04 06:51 38.79028 116.66120 19169 ft 467 kts 180°
2026-05-04 06:51 38.75766 116.66202 19542 ft 469 kts 180°
2026-05-04 06:52 38.72494 116.66285 19890 ft 472 kts 180°
2026-05-04 06:52 38.69251 116.66366 20228 ft 473 kts 180°
2026-05-04 06:52 38.65949 116.66447 20559 ft 475 kts 180°
2026-05-04 06:52 38.62641 116.66350 20871 ft 476 kts 186°
2026-05-04 06:53 38.59336 116.65963 21185 ft 478 kts 187°
2026-05-04 06:53 38.56014 116.65579 21489 ft 480 kts 187°
2026-05-04 06:53 38.52684 116.65199 21788 ft 482 kts 187°
2026-05-04 06:53 38.49336 116.64818 22082 ft 484 kts 187°
2026-05-04 06:54 38.46017 116.64441 22375 ft 486 kts 187°
2026-05-04 06:54 38.42644 116.64057 22660 ft 488 kts 187°
2026-05-04 06:54 38.39254 116.63670 22936 ft 490 kts 187°
2026-05-04 06:54 38.35861 116.63279 23204 ft 491 kts 187°
2026-05-04 06:55 38.32445 116.62926 23484 ft 494 kts 184°
2026-05-04 06:55 38.28998 116.63056 23711 ft 498 kts 175°
2026-05-04 06:55 38.25583 116.63819 24029 ft 499 kts 167°
2026-05-04 06:55 38.22243 116.65037 24351 ft 499 kts 165°
2026-05-04 06:56 38.18957 116.66266 24666 ft 499 kts 165°
2026-05-04 06:57 37.95755 116.75049 27058 ft 497 kts 165°
2026-05-04 06:58 37.92449 116.76315 27420 ft 497 kts 165°
2026-05-04 06:58 37.89145 116.77576 27796 ft 496 kts 165°
2026-05-04 06:58 37.85836 116.78837 28175 ft 496 kts 165°
2026-05-04 06:58 37.82531 116.80094 28565 ft 495 kts 165°
2026-05-04 06:59 37.79233 116.81344 28936 ft 495 kts 165°
2026-05-04 06:59 37.75925 116.82592 29064 ft 498 kts 165°
2026-05-04 06:59 37.69292 116.85097 29085 ft 502 kts 165°
2026-05-04 07:01 37.42511 116.95142 29065 ft 503 kts 165°
2026-05-04 07:02 37.35806 116.97652 29065 ft 503 kts 166°
2026-05-04 07:02 37.29101 117.00165 29068 ft 503 kts 165°
2026-05-04 07:03 37.22488 117.03060 29058 ft 504 kts 161°
2026-05-04 07:03 37.15948 117.06278 29063 ft 505 kts 160°
2026-05-04 07:04 37.09448 117.09441 29068 ft 505 kts 161°
2026-05-04 07:04 37.02862 117.12507 29069 ft 505 kts 162°
2026-05-04 07:05 36.96268 117.15529 29063 ft 505 kts 162°
2026-05-04 07:05 36.89676 117.18581 29091 ft 505 kts 161°
2026-05-04 07:06 36.83027 117.21100 29091 ft 501 kts 173°
2026-05-04 07:06 36.79573 117.21558 29092 ft 497 kts 181°
2026-05-04 07:07 36.72672 117.21528 29079 ft 496 kts 184°
2026-05-04 07:09 36.45078 117.21338 29099 ft 497 kts 182°
2026-05-04 07:09 36.38216 117.22629 29105 ft 503 kts 166°
2026-05-04 07:10 36.31566 117.25121 29108 ft 503 kts 165°
2026-05-04 07:12 36.04836 117.35015 29093 ft 501 kts 165°
2026-05-04 07:12 35.98155 117.37477 29098 ft 501 kts 165°
2026-05-04 07:13 35.91486 117.39967 29103 ft 501 kts 165°
2026-05-04 07:13 35.85946 117.42051 29105 ft 501 kts 165°
2026-05-04 07:14 35.69332 117.48250 29115 ft 500 kts 165°
2026-05-04 07:15 35.62678 117.50727 29118 ft 499 kts 165°
2026-05-04 07:15 35.54930 117.53609 29143 ft 504 kts 165°
2026-05-04 07:16 35.48216 117.56093 29152 ft 503 kts 165°
2026-05-04 07:16 35.42658 117.58152 29147 ft 501 kts 165°
2026-05-04 07:17 35.35991 117.60617 29137 ft 500 kts 166°
2026-05-04 07:17 35.28260 117.63459 29114 ft 499 kts 166°
2026-05-04 07:18 35.22697 117.65509 29117 ft 498 kts 166°
2026-05-04 07:18 35.16106 117.67941 29114 ft 498 kts 166°
2026-05-04 07:19 35.09473 117.70362 29113 ft 498 kts 166°
2026-05-04 07:19 35.02841 117.72777 29116 ft 497 kts 166°
2026-05-04 07:20 34.95133 117.75600 29118 ft 497 kts 166°
2026-05-04 07:20 34.89630 117.77619 29118 ft 497 kts 166°
2026-05-04 07:22 34.63151 117.87208 29120 ft 497 kts 166°
2026-05-04 07:23 34.56523 117.89584 29108 ft 497 kts 166°
2026-05-04 07:23 34.49886 117.91964 29117 ft 497 kts 166°
2026-05-04 07:24 34.43249 117.94335 29121 ft 497 kts 166°
2026-05-04 07:24 34.36663 117.96684 29124 ft 497 kts 166°
2026-05-04 07:26 34.12707 118.13047 29131 ft 501 kts 146°
2026-05-04 07:27 34.07049 118.17954 29131 ft 501 kts 146°
2026-05-04 07:27 34.01404 118.22870 29122 ft 500 kts 146°
2026-05-04 07:28 33.95800 118.27751 29125 ft 500 kts 146°
2026-05-04 07:28 33.90172 118.32678 29133 ft 500 kts 146°
2026-05-04 07:29 33.84551 118.37617 29132 ft 500 kts 146°
2026-05-04 07:29 33.78928 118.42547 29136 ft 500 kts 146°
2026-05-04 07:30 33.73341 118.47433 29125 ft 500 kts 146°
2026-05-04 07:30 33.67711 118.52339 29132 ft 500 kts 146°
2026-05-04 07:31 33.62074 118.57235 29143 ft 500 kts 146°
2026-05-04 07:33 33.39592 118.76726 29139 ft 499 kts 147°
2026-05-04 07:33 33.33975 118.81603 29141 ft 499 kts 147°
2026-05-04 07:34 33.28392 118.86442 29141 ft 499 kts 147°
2026-05-04 07:34 33.22780 118.91326 29143 ft 499 kts 147°
2026-05-04 07:35 33.17179 118.96217 29146 ft 499 kts 147°
2026-05-04 07:35 33.11565 119.01092 29137 ft 499 kts 147°
2026-05-04 07:36 33.05988 119.05906 29149 ft 498 kts 148°
2026-05-04 07:38 32.83629 119.25235 29142 ft 497 kts 147°
2026-05-04 07:38 32.78060 119.30114 29144 ft 497 kts 147°
2026-05-04 07:39 32.72487 119.34975 29145 ft 497 kts 147°
2026-05-04 07:39 32.66940 119.39779 29147 ft 497 kts 148°
2026-05-04 07:40 32.61352 119.44617 29149 ft 497 kts 147°
2026-05-04 07:40 32.58558 119.47035 28976 ft 499 kts 147°
2026-05-04 07:40 32.55758 119.49462 28432 ft 498 kts 147°
2026-05-04 07:41 32.52955 119.51891 27873 ft 500 kts 148°
2026-05-04 07:41 32.50139 119.54323 27350 ft 501 kts 148°
2026-05-04 07:41 32.47319 119.56751 26840 ft 502 kts 149°
2026-05-04 07:41 32.44526 119.59150 26346 ft 503 kts 148°
2026-05-04 07:42 32.41689 119.61579 25857 ft 504 kts 148°
2026-05-04 07:42 32.38848 119.64005 25377 ft 505 kts 148°
2026-05-04 07:42 32.35999 119.66436 24892 ft 505 kts 148°
2026-05-04 07:42 32.33148 119.68869 24436 ft 504 kts 147°
2026-05-04 07:43 32.30309 119.71288 23973 ft 501 kts 147°
2026-05-04 07:43 32.27488 119.73688 23495 ft 498 kts 147°
2026-05-04 07:43 32.24723 119.76038 22959 ft 494 kts 147°
2026-05-04 07:43 32.21946 119.78403 22416 ft 490 kts 147°
2026-05-04 07:44 32.19191 119.80757 21895 ft 487 kts 147°
2026-05-04 07:44 32.16477 119.83082 21261 ft 478 kts 147°
2026-05-04 07:44 32.13821 119.85358 20723 ft 464 kts 147°
2026-05-04 07:44 32.11273 119.87541 20242 ft 442 kts 147°
2026-05-04 07:45 32.08830 119.89628 19783 ft 425 kts 147°
2026-05-04 07:45 32.06474 119.91637 19329 ft 411 kts 147°
2026-05-04 07:45 32.04226 119.93552 18893 ft 398 kts 147°
2026-05-04 07:45 32.02019 119.95437 18461 ft 385 kts 147°
2026-05-04 07:46 31.99878 119.97272 17956 ft 378 kts 146°
2026-05-04 07:46 31.97769 119.99085 17436 ft 372 kts 146°
2026-05-04 07:46 31.95685 120.00877 16779 ft 370 kts 146°
2026-05-04 07:46 31.93619 120.02653 16117 ft 366 kts 146°
2026-05-04 07:47 31.91566 120.04418 15464 ft 364 kts 146°
2026-05-04 07:47 31.89531 120.06166 14836 ft 361 kts 146°
2026-05-04 07:47 31.87509 120.07897 14259 ft 357 kts 146°
2026-05-04 07:49 31.74335 120.19159 10856 ft 315 kts 145°
2026-05-04 07:49 31.72565 120.20654 10350 ft 311 kts 145°
2026-05-04 07:49 31.70832 120.22096 9841 ft 307 kts 145°
2026-05-04 07:50 31.69096 120.23530 9303 ft 303 kts 146°
2026-05-04 07:50 31.67380 120.24946 8758 ft 300 kts 146°
2026-05-04 07:50 31.65690 120.26346 8244 ft 295 kts 146°
2026-05-04 07:50 31.64029 120.27724 7743 ft 290 kts 146°
2026-05-04 07:51 31.62497 120.29208 7242 ft 284 kts 127°
2026-05-04 07:51 31.61785 120.31280 6815 ft 270 kts 90°
2026-05-04 07:51 31.62174 120.33285 6432 ft 244 kts 57°
2026-05-04 07:51 31.63145 120.34871 6031 ft 236 kts 47°
2026-05-04 07:52 31.64251 120.36230 5627 ft 231 kts 39°
2026-05-04 07:52 31.65511 120.37356 5223 ft 225 kts 33°
2026-05-04 07:52 31.66741 120.38428 4815 ft 216 kts 42°
2026-05-04 07:52 31.67580 120.39862 4454 ft 212 kts 68°
2026-05-04 07:53 31.67848 120.41529 4046 ft 207 kts 91°
2026-05-04 07:54 31.62455 120.48469 2343 ft 165 kts 193°
2026-05-04 07:55 31.61372 120.48070 2147 ft 163 kts 202°
2026-05-04 07:55 31.60326 120.47620 1951 ft 154 kts 202°
2026-05-04 07:55 31.59375 120.47211 1753 ft 141 kts 202°
2026-05-04 07:55 31.58464 120.46818 1568 ft 137 kts 202°
2026-05-04 07:56 31.57573 120.46435 1375 ft 135 kts 201°
2026-05-04 07:56 31.56710 120.46063 1202 ft 134 kts 201°
2026-05-04 07:56 31.55843 120.45685 1017 ft 133 kts 201°
2026-05-04 07:56 31.54972 120.45305 834 ft 134 kts 200°
2026-05-04 07:57 31.54096 120.44929 676 ft 134 kts 201°
2026-05-04 07:57 31.53225 120.44556 488 ft 134 kts 201°
2026-05-04 07:57 31.52352 120.44179 328 ft 134 kts 201°
2026-05-04 07:57 31.51480 120.43807 154 ft 133 kts 201°
2026-05-04 07:58 31.50622 120.43438 32 ft 125 kts 198°
2026-05-04 07:58 31.49948 120.43150 26 ft 75 kts 200°
2026-05-04 07:58 31.49603 120.42998 24 ft 35 kts 207°
2026-05-04 07:58 31.49479 120.42896 25 ft 17 kts 220°
2026-05-04 07:59 31.49405 120.42803 25 ft 14 kts 231°
2026-05-04 07:59 31.49425 120.42694 25 ft 15 kts 315°
2026-05-04 07:59 31.49521 120.42716 26 ft 15 kts 20°
2026-05-04 07:59 31.49625 120.42761 26 ft 17 kts 20°
2026-05-04 08:00 31.49737 120.42807 26 ft 17 kts 19°
2026-05-04 08:00 31.49851 120.42858 24 ft 18 kts 23°
2026-05-04 08:00 31.49965 120.42907 26 ft 14 kts 20°